Location: �terpigny
(49.8910°N, 2.9249°E)
Time: 12:28:40
(UTC+00:00)

RS-44 - Pass Details

Date: 02 July 2022
Orbit: 1175 x 1510 km, 82.5° (Epoch: 12 August)

Event Time Altitude Azimuth Distance (km) Brightness Sun altitude
Rises 21:50:48 0° 230° (SW) 4,400 ? -12.3°
Reaches altitude 10° 21:54:00 10° 241° (WSW) 3,479 ? -12.5°
Maximum altitude 22:01:10 30° 300° (WNW) 2,363 ? -13.1°
Drops below altitude 10° 22:08:43 10° 359° (N) 3,658 ? -13.6°
Sets 22:12:13 0° 10° (N) 4,659 ? -13.8°
